Location: Newark
(36.1358°N, 115.1208°W)
Time: 11:33:38
(UTC+00:00)

N. Korean satellite - Visible Passes

Search period start: 27 September 2021 00:00
Search period end: 07 October 2021 00:00
Orbit: 449 x 498 km, 97.3° (Epoch: 27 September)

Date Brightness Start Highest point End Pass type
(mag) Time Alt. Az. Time Alt. Az. Time Alt. Az.
27 Sep 9.7 12:04:37 10° NE 12:06:58 17° E 12:09:19 10° SE visible
29 Sep 7.4 12:41:08 10° NNE 12:44:40 54° E 12:48:12 10° S visible
30 Sep 9.3 12:13:52 10° NE 12:16:45 22° E 12:19:39 10° SSE visible
02 Oct 6.8 12:50:43 10° NNE 12:54:19 76° E 12:57:58 10° S visible
03 Oct 8.7 12:23:12 10° NE 12:26:25 30° E 12:29:39 10° SSE visible
04 Oct 9.9 11:56:37 10° ENE 11:58:25 13° E 12:00:11 10° ESE visible
05 Oct 6.5 13:00:15 10° N 13:03:53 77° W 13:07:31 10° SSW visible
06 Oct 8.1 12:32:31 10° NNE 12:35:59 40° E 12:39:26 10° S visible
